Skip Page Navigation
NASA JPL Caltech
NASA Logo - Jet Propulsion Laboratory + View the NASA Portal
+ Center for Near-Earth Object Studies
JPL Home Earth Solar System Stars & Galaxies Technology
JPL Solar System Dynamics
BODIES ORBITS EPHEMERIDES TOOLS PHYSICAL DATA DISCOVERY FAQ SITE MAP
JPL Small-Body Database Browser
Search: [ help ]  
(2016 GS2)
Classification: Apollo [NEO]          SPK-ID: 3749066
Ephemeris | Orbit Diagram | Orbital Elements | Mission Design | Physical Parameters | Close-Approach Data ]

[ hide orbit diagram ]

For accurate long-term ephemerides, please instead use our Horizons system.This orbit viewer was implemented using two-body methods, and hence should not be used for determining accurate long-term trajectories (over several years or decades) or planetary encounter circumstances.


Orbital Elements at Epoch 2459200.5 (2020-Dec-17.0) TDB
Reference: JPL 48 (heliocentric ecliptic J2000)
 Element Value Uncertainty (1-sigma)   Units 
e .3165033998062398 1.9255e-07  
a 1.335515965188973 2.9896e-07 au
q .9128206217111512 6.8647e-08 au
i 3.859600047248421 5.3068e-06 deg
node 63.83391073299104 2.3725e-05 deg
peri 226.0575282800323 2.4603e-05 deg
M 321.528930251705 0.00035873 deg
tp 2459260.742614940077
(2021-Feb-15.24261494)
0.00058198 TDB
period 563.7311756684147
1.54
0.00018929
5.182e-07
d
yr
n .6386022550077151 2.1443e-07 deg/d
Q 1.758211308666795 3.9358e-07 au
  Orbit Determination Parameters
   # obs. used (total)      400  
   # delay obs. used      1  
   # Doppler obs. used      0  
   data-arc span      213 days  
   first obs. used      2016-03-31  
   last obs. used      2016-10-30  
   planetary ephem.      DE441  
   SB-pert. ephem.      SB441-N16  
   condition code      2  
   norm. resid. RMS      .32896  
   source      ORB  
   producer      Otto Matic  
   solution date      2021-Apr-15 16:50:32  

Additional Information
 Earth MOID = .00881065 au 
 Jupiter MOID = 3.41925 au 
 T_jup = 4.855 
[ show covariance matrix ]

Ephemeris | Orbit Diagram | Orbital Elements | Mission Design | Physical Parameters | Close-Approach Data ]

Physical Parameter Table
Parameter Symbol Value Units Sigma Reference Notes
absolute magnitude H 23.0   n/a E2016-UA7  
rotation period rot_per 0.01266 h n/a LCDB (Rev. 2020-October); Warner et al., 2009 Published Reference List:
[Ryan, W. (2016) http://infohost.nmt.edu/~bryan/research/work/mro_images/k16g02s/k16 g02s_160510.jpg]

[ show close-approach data ]
Ephemeris | Orbit Diagram | Orbital Elements | Mission Design | Physical Parameters | Close-Approach Data ]
ABOUT SSD CREDITS/AWARDS PRIVACY/COPYRIGHT GLOSSARY LINKS
FirstGov 2021-Jun-24 02:50 UT
(server date/time)  
NASA Home Page
Site Manager:   Ryan S. Park
Webmaster  Alan B. Chamberlin